Weather History for Columbus, OH

Change the Weather History Date:

Thursday, August 14, 2014

  Actual Average Record
Temperature  
Mean Temperature 69 °F 74 °F  
Max Temperature 78 °F 84 °F 96 °F (1959)
Min Temperature 59 °F 65 °F 45 °F (1964)
Degree Days  
Heating Degree Days 0 0  
Month to date heating degree days 0 0  
Since 1 June heating degree days 1 19  
Since 1 July heating degree days 0 0  
Cooling Degree Days 4 9  
Month to date cooling degree days 129 137  
Year to date cooling degree days 824 745  
Since 1 June cooling degree days 669 663  
Growing Degree Days 20 (Base 50)    
Moisture  
Dew Point 53 °F    
Average Humidity 59    
Maximum Humidity 78    
Minimum Humidity 40    
Precipitation  
Precipitation 0.00 in 0.10 in 1.44 in (1886)
Month to date precipitation 1.60 1.50  
Year to date precipitation 27.21 25.87  
Snow  
Snow 0.00 in 0.00 in 0.00 in ()
Month to date snowfall 0.0 0.0  
Since 1 June snowfall 0.0 0.0  
Since 1 July snowfall 0.0 0.0  
Snow Depth 0.00 in    
Sea Level Pressure  
Sea Level Pressure 29.99 in    
Wind  
Wind Speed 8 mph (NNW)    
Max Wind Speed 20 mph    
Max Gust Speed 24 mph    
Visibility 10 miles    
Events      
T = Trace of Precipitation, MM = Missing Value Source: NWS Daily Summary

Daily Weather History Graph

Daily Weather History Graph

Search for Another Location

Airport:

Trip Planner

Search our weather history database for the weather conditions in past years. The results will help you decide how hot, cold, wet, or windy it might be!

Date:

Astronomy

Aug. 14, 2014 Rise Set
Actual Time 6:42 AM EDT 8:29 PM EDT
Civil Twilight 6:13 AM EDT 8:58 PM EDT
Nautical Twilight 5:37 AM EDT 9:33 PM EDT
Astronomical Twilight 4:59 AM EDT 10:11 PM EDT
Moon 10:52 PM EDT (8/14) 11:17 AM EDT (8/14)
Length of Visible Light 14h 45m
Length of Day
13h 47m
Waning Gibbous, 79% of the Moon is Illuminated
Aug 14
Waning Gibbous
Aug 17
Last Quarter
Aug 25
New
Sep 2
First Quarter
Sep 8
Full

Hourly Weather History & Observations

Time (EDT) Temp. Dew Point Humidity Pressure Visibility Wind Dir Wind Speed Gust Speed Precip Events Conditions
12:51 AM 69.1 °F 57.0 °F 65% 29.98 in 10.0 mi Calm Calm - N/A   Partly Cloudy
1:51 AM 66.0 °F 57.0 °F 73% 29.97 in 10.0 mi SSE 3.5 mph - N/A   Scattered Clouds
2:51 AM 64.9 °F 57.0 °F 75% 29.96 in 10.0 mi Calm Calm - N/A   Mostly Cloudy
3:51 AM 66.0 °F 57.0 °F 73% 29.96 in 10.0 mi WNW 8.1 mph - N/A   Mostly Cloudy
4:51 AM 64.9 °F 55.9 °F 73% 29.96 in 10.0 mi NNW 5.8 mph - N/A   Scattered Clouds
5:51 AM 64.4 °F 53.6 °F 68% 29.99 in 10.0 mi NNW 6.9 mph - N/A   Clear
6:51 AM 62.1 °F 54.0 °F 75% 29.99 in 10.0 mi North 4.6 mph - N/A   Scattered Clouds
7:51 AM 63.0 °F 54.0 °F 72% 30.01 in 10.0 mi West 5.8 mph - N/A   Scattered Clouds
8:51 AM 66.0 °F 54.0 °F 65% 30.03 in 10.0 mi North 5.8 mph - N/A   Scattered Clouds
9:51 AM 69.1 °F 53.1 °F 57% 30.03 in 10.0 mi North 9.2 mph - N/A   Scattered Clouds
10:51 AM 71.6 °F 50.0 °F 46% 30.04 in 10.0 mi NW 8.1 mph - N/A   Partly Cloudy
11:51 AM 75.0 °F 50.0 °F 41% 30.02 in 10.0 mi NW 8.1 mph - N/A   Partly Cloudy
12:51 PM 75.0 °F 51.1 °F 43% 30.01 in 10.0 mi NNW 8.1 mph - N/A   Partly Cloudy
1:51 PM 75.0 °F 52.0 °F 44% 30.00 in 10.0 mi WNW 8.1 mph 18.4 mph N/A   Scattered Clouds
2:51 PM 77.0 °F 51.8 °F 41% 30.01 in 10.0 mi NW 15.0 mph 24.2 mph N/A   Scattered Clouds
3:51 PM 77.0 °F 51.1 °F 40% 29.98 in 10.0 mi NW 16.1 mph 20.7 mph N/A   Scattered Clouds
4:51 PM 75.2 °F 51.8 °F 44% 29.99 in 10.0 mi NW 17.3 mph 21.9 mph N/A   Scattered Clouds
5:51 PM 75.0 °F 52.0 °F 44% 29.97 in 10.0 mi NW 13.8 mph - N/A   Scattered Clouds
6:51 PM 73.9 °F 51.1 °F 45% 29.97 in 10.0 mi NW 11.5 mph - N/A   Partly Cloudy
7:51 PM 72.0 °F 48.9 °F 44% 29.97 in 10.0 mi NW 12.7 mph - N/A   Partly Cloudy
8:51 PM 69.1 °F 48.0 °F 47% 29.99 in 10.0 mi NNW 6.9 mph - N/A   Clear
9:51 PM 66.0 °F 50.0 °F 56% 30.00 in 10.0 mi North 3.5 mph - N/A   Clear
10:51 PM 64.4 °F 51.8 °F 64% 30.01 in 10.0 mi Calm Calm - N/A   Clear
11:51 PM 60.8 °F 51.8 °F 72% 30.02 in 10.0 mi NE 3.5 mph - N/A   Clear